GW0935 Weather Reports


Display with metric or nautical units.
time (UTC)temp
F
wind
direction
speed
MPH
gust
MPH
rain 1hr
in
rain 24hr
in
rain mn
in
humidity
%
barometer
mb
20260507192604 53 212 0.0 5.0 0.00 0.00 0.00 77 1014.2
20260507192405 53 86 1.0 5.0 0.00 0.00 0.00 76 1014.3
20260507192204 53 278 0.0 2.0 0.00 0.00 0.00 76 1014.4
20260507192006 53 231 1.0 2.0 0.00 0.00 0.00 75 1014.4
20260507191803 53 209 1.0 2.0 0.00 0.00 0.00 75 1014.4
20260507191605 54 213 0.0 2.0 0.00 0.00 0.00 75 1014.3
20260507191404 54 220 0.0 2.0 0.00 0.00 0.00 74 1014.3
20260507191205 54 227 1.0 4.0 0.00 0.00 0.00 74 1014.3
20260507190805 54 250 1.0 4.0 0.00 0.00 0.00 74 1014.2
20260507190604 54 240 1.0 4.0 0.00 0.00 0.00 73 1014.2
20260507190405 54 250 1.0 3.0 0.00 0.00 0.00 73 1014.2
20260507190204 54 262 1.0 3.0 0.00 0.00 0.00 73 1014.1
20260507190010 54 256 0.0 2.0 0.00 0.00 0.00 73 1014.1
20260507185804 54 231 0.0 2.0 0.00 0.00 0.00 72 1014.0
20260507185604 54 162 0.0 2.0 0.00 0.00 0.00 72 1014.0
20260507185403 54 208 0.0 3.0 0.00 0.00 0.00 72 1014.1
20260507185203 54 218 0.0 3.0 0.00 0.00 0.00 72 1014.0
20260507185004 54 18 0.0 3.0 0.00 0.00 0.00 72 1014.0
20260507184604 55 262 0.0 3.0 0.00 0.00 0.00 71 1014.0
20260507184404 55 255 2.0 3.0 0.00 0.00 0.00 70 1014.0
20260507184204 55 254 1.0 3.0 0.00 0.00 0.00 69 1014.0
20260507184004 55 275 1.0 3.0 0.00 0.00 0.00 68 1013.9
20260507183804 56 268 0.0 3.0 0.00 0.00 0.00 67 1014.0
20260507183604 56 259 0.0 4.0 0.00 0.00 0.00 66 1013.9
20260507183407 56 283 0.0 4.0 0.00 0.00 0.00 65 1013.8
20260507183203 56 95 1.0 4.0 0.00 0.00 0.00 65 1014.0
20260507183006 56 212 0.0 6.0 0.00 0.00 0.00 63 1013.8
20260507182804 56 248 2.0 6.0 0.00 0.00 0.00 62 1013.9
20260507182404 56 167 2.0 6.0 0.00 0.00 0.00 61 1013.8
20260507182206 56 148 0.0 4.0 0.00 0.00 0.00 61 1013.8
20260507182005 56 153 2.0 5.0 0.00 0.00 0.00 61 1013.9
20260507181603 56 166 1.0 5.0 0.00 0.00 0.00 60 1013.7
20260507181405 57 153 3.0 5.0 0.00 0.00 0.00 60 1013.7
20260507181203 57 137 2.0 5.0 0.00 0.00 0.00 60 1013.7
20260507181006 57 240 1.0 4.0 0.00 0.00 0.00 60 1013.7
20260507180605 57 207 1.0 4.0 0.00 0.00 0.00 60 1013.7
20260507180403 57 153 1.0 4.0 0.00 0.00 0.00 60 1013.7
20260507180206 57 160 2.0 4.0 0.00 0.00 0.00 60 1013.7
20260507180006 57 160 2.0 4.0 0.00 0.00 0.00 59 1013.7
20260507175602 57 141 1.0 5.0 0.00 0.00 0.00 59 1013.8
20260507175403 57 134 1.0 7.0 0.00 0.00 0.00 59 1013.7
20260507175202 57 143 2.0 7.0 0.00 0.00 0.00 59 1013.7
20260507175003 57 199 2.0 7.0 0.00 0.00 0.00 59 1013.6
20260507174602 57 191 2.0 5.0 0.00 0.00 0.00 59 1013.8
20260507174202 57 173 2.0 7.0 0.00 0.00 0.00 58 1013.7
20260507173803 57 174 2.0 8.0 0.00 0.00 0.00 58 1013.7
20260507173605 57 248 4.0 8.0 0.00 0.00 0.00 58 1013.7
20260507173403 57 143 3.0 8.0 0.00 0.00 0.00 58 1013.7
20260507173204 57 199 5.0 8.0 0.00 0.00 0.00 57 1013.7
20260507173004 57 169 4.0 11.0 0.00 0.00 0.00 57 1013.7
20260507172805 57 158 4.0 11.0 0.00 0.00 0.00 57 1013.7
20260507172602 57 127 3.0 11.0 0.00 0.00 0.00 56 1013.7
20260507172404 57 219 5.0 11.0 0.00 0.00 0.00 56 1013.7
20260507172202 57 185 4.0 10.0 0.00 0.00 0.00 56 1013.6
20260507172005 57 172 6.0 10.0 0.00 0.00 0.00 56 1013.6
20260507171803 58 129 6.0 10.0 0.00 0.00 0.00 56 1013.6
20260507171604 58 153 5.0 10.0 0.00 0.00 0.00 56 1013.6
20260507171403 58 150 3.0 7.0 0.00 0.00 0.00 56 1013.6
20260507171204 58 175 2.0 6.0 0.00 0.00 0.00 56 1013.7
20260507171003 58 161 3.0 7.0 0.00 0.00 0.00 56 1013.6
20260507170804 58 158 2.0 11.0 0.00 0.00 0.00 56 1013.6
20260507170602 58 152 3.0 13.0 0.00 0.00 0.00 56 1013.6
20260507170404 58 162 3.0 13.0 0.00 0.00 0.00 55 1013.6
20260507170203 58 139 5.0 13.0 0.00 0.00 0.00 55 1013.6
20260507170009 58 159 7.0 13.0 0.00 0.00 0.00 54 1013.7
20260507165802 58 172 4.0 11.0 0.00 0.00 0.00 54 1013.7
20260507165403 58 226 5.0 11.0 0.00 0.00 0.00 53 1013.6
20260507165202 58 128 3.0 9.0 0.00 0.00 0.00 54 1013.7
20260507165003 58 152 2.0 9.0 0.00 0.00 0.00 53 1013.7
20260507164803 58 164 4.0 9.0 0.00 0.00 0.00 53 1013.7
20260507164602 58 155 3.0 9.0 0.00 0.00 0.00 53 1013.6
20260507164402 58 223 4.0 9.0 0.00 0.00 0.00 54 1013.6
20260507164203 58 160 5.0 9.0 0.00 0.00 0.00 53 1013.7
20260507164005 58 162 5.0 9.0 0.00 0.00 0.00 53 1013.7
20260507163804 58 154 2.0 7.0 0.00 0.00 0.00 54 1013.7
20260507163604 58 181 3.0 7.0 0.00 0.00 0.00 53 1013.6
20260507163403 58 125 2.0 7.0 0.00 0.00 0.00 53 1013.7
20260507163204 58 165 2.0 7.0 0.00 0.00 0.00 54 1013.6
20260507163003 58 121 2.0 8.0 0.00 0.00 0.00 54 1013.7
20260507162804 58 200 2.0 8.0 0.00 0.00 0.00 54 1013.7
20260507162404 58 191 3.0 8.0 0.00 0.00 0.00 54 1013.7
20260507162005 58 127 4.0 8.0 0.00 0.00 0.00 54 1013.7
20260507161803 58 148 3.0 8.0 0.00 0.00 0.00 55 1013.7
20260507161604 58 172 3.0 10.0 0.00 0.00 0.00 55 1013.8
20260507161403 58 169 4.0 10.0 0.00 0.00 0.00 55 1013.8
20260507161204 57 98 4.0 10.0 0.00 0.00 0.00 55 1013.8
20260507161004 57 203 4.0 10.0 0.00 0.00 0.00 56 1013.7
20260507160804 57 138 3.0 6.0 0.00 0.00 0.00 56 1013.8
20260507160602 57 174 3.0 6.0 0.00 0.00 0.00 56 1013.7
20260507160404 57 148 3.0 6.0 0.00 0.00 0.00 55 1013.8
20260507160203 57 151 4.0 6.0 0.00 0.00 0.00 55 1013.8
20260507160008 57 165 2.0 6.0 0.00 0.00 0.00 55 1013.8
20260507155604 57 99 2.0 8.0 0.00 0.00 0.00 55 1013.8
20260507155402 57 123 2.0 8.0 0.00 0.00 0.00 55 1013.8
20260507155204 58 144 4.0 8.0 0.00 0.00 0.00 54 1013.8
20260507154804 58 179 2.0 7.0 0.00 0.00 0.00 54 1013.8
20260507154603 58 244 3.0 7.0 0.00 0.00 0.00 54 1013.8
20260507154405 58 146 4.0 8.0 0.00 0.00 0.00 54 1013.8
20260507153603 58 181 3.0 9.0 0.00 0.00 0.00 54 1013.9
20260507153404 58 161 5.0 9.0 0.00 0.00 0.00 54 1013.9
20260507153203 58 150 4.0 11.0 0.00 0.00 0.00 54 1014.0
20260507152802 58 148 3.0 11.0 0.00 0.00 0.00 55 1013.9
20260507152603 58 175 4.0 11.0 0.00 0.00 0.00 55 1013.9
20260507152402 59 155 6.0 11.0 0.00 0.00 0.00 56 1013.9
20260507152202 59 148 4.0 10.0 0.00 0.00 0.00 56 1013.9
20260507152003 59 174 2.0 8.0 0.00 0.00 0.00 57 1013.9
20260507151803 59 188 3.0 8.0 0.00 0.00 0.00 56 1013.9
20260507151402 59 177 3.0 7.0 0.00 0.00 0.00 56 1013.9
20260507151202 59 155 4.0 7.0 0.00 0.00 0.00 56 1014.0
20260507151003 59 96 1.0 10.0 0.00 0.00 0.00 56 1013.9
20260507150602 59 141 4.0 10.0 0.00 0.00 0.00 56 1013.9
20260507150203 59 143 5.0 10.0 0.00 0.00 0.00 56 1013.9
20260507150007 59 155 3.0 8.0 0.00 0.00 0.00 56 1014.0
20260507145804 59 142 4.0 9.0 0.00 0.00 0.00 56 1014.0
20260507145602 59 176 5.0 9.0 0.00 0.00 0.00 56 1014.0
20260507145405 59 112 4.0 9.0 0.00 0.00 0.00 55 1014.0
20260507145202 59 149 4.0 9.0 0.00 0.00 0.00 55 1014.0
20260507145003 59 198 4.0 9.0 0.00 0.00 0.00 55 1013.9
20260507144802 59 167 5.0 9.0 0.00 0.00 0.00 54 1014.0
20260507144602 59 206 3.0 9.0 0.00 0.00 0.00 54 1014.0
20260507144403 59 154 4.0 9.0 0.00 0.00 0.00 54 1014.0
20260507144202 59 178 5.0 9.0 0.00 0.00 0.00 54 1014.1
20260507144004 59 150 5.0 8.0 0.00 0.00 0.00 54 1014.0
20260507143802 59 218 4.0 8.0 0.00 0.00 0.00 55 1014.1
20260507143605 59 134 4.0 8.0 0.00 0.00 0.00 55 1014.2
20260507143404 59 205 4.0 7.0 0.00 0.00 0.00 56 1014.2
20260507143202 59 133 2.0 7.0 0.00 0.00 0.00 56 1014.2
20260507143005 59 209 2.0 7.0 0.00 0.00 0.00 57 1014.2
20260507142802 58 169 2.0 8.0 0.00 0.00 0.00 56 1014.2
20260507142602 59 142 4.0 8.0 0.00 0.00 0.00 56 1014.4
20260507142403 59 176 4.0 8.0 0.00 0.00 0.00 55 1014.3
20260507142202 59 138 4.0 8.0 0.00 0.00 0.00 54 1014.4
20260507142003 59 148 4.0 8.0 0.00 0.00 0.00 54 1014.5
20260507141802 59 217 4.0 8.0 0.00 0.00 0.00 55 1014.5
20260507141602 59 158 2.0 8.0 0.00 0.00 0.00 59 1014.3
20260507141402 58 190 4.0 8.0 0.00 0.00 0.00 59 1014.5
20260507141202 58 174 2.0 9.0 0.00 0.00 0.00 58 1014.5
20260507141003 58 132 4.0 9.0 0.00 0.00 0.00 58 1014.5
20260507140802 59 174 4.0 9.0 0.00 0.00 0.00 57 1014.6
20260507140603 59 143 3.0 9.0 0.00 0.00 0.00 57 1014.7
20260507140403 58 171 4.0 9.0 0.00 0.00 0.00 57 1014.6
20260507140202 59 150 4.0 8.0 0.00 0.00 0.00 56 1014.7
20260507135803 59 165 4.0 8.0 0.00 0.00 0.00 58 1014.6
20260507135603 58 181 2.0 9.0 0.00 0.00 0.00 58 1014.7
20260507135202 58 172 4.0 9.0 0.00 0.00 0.00 58 1014.7
20260507135003 58 153 5.0 9.0 0.00 0.00 0.00 57 1014.8
20260507134602 58 122 3.0 9.0 0.00 0.00 0.00 58 1014.7
20260507134402 58 160 3.0 9.0 0.00 0.00 0.00 59 1014.7
20260507134203 58 119 4.0 9.0 0.00 0.00 0.00 58 1014.8
20260507133803 58 162 5.0 9.0 0.00 0.00 0.00 58 1014.8
20260507133403 58 172 3.0 8.0 0.00 0.00 0.00 59 1014.8
20260507133203 58 155 3.0 8.0 0.00 0.00 0.00 58 1014.9
20260507133005 58 148 4.0 8.0 0.00 0.00 0.00 59 1014.9
20260507132802 58 137 2.0 8.0 0.00 0.00 0.00 60 1015.0
20260507132604 58 153 4.0 8.0 0.00 0.00 0.00 59 1015.0
20260507132402 58 136 4.0 8.0 0.00 0.00 0.00 59 1014.9
20260507132003 58 276 3.0 7.0 0.00 0.00 0.00 59 1014.9
20260507131803 58 155 4.0 9.0 0.00 0.00 0.00 60 1015.0
20260507131602 58 152 2.0 9.0 0.00 0.00 0.00 60 1014.9
20260507131403 57 154 4.0 9.0 0.00 0.00 0.00 60 1014.9
20260507131202 57 167 2.0 9.0 0.00 0.00 0.00 59 1015.0
20260507131004 57 232 4.0 9.0 0.00 0.00 0.00 58 1015.0
20260507130802 57 183 4.0 7.0 0.00 0.00 0.00 59 1015.1
20260507130402 57 144 2.0 9.0 0.00 0.00 0.00 60 1015.0
20260507130203 57 117 2.0 9.0 0.00 0.00 0.00 61 1015.1
20260507130006 57 154 4.0 9.0 0.00 0.00 0.00 60 1015.1
20260507125802 57 147 4.0 8.0 0.00 0.00 0.00 60 1015.1
20260507125602 57 141 3.0 9.0 0.00 0.00 0.00 60 1015.0
20260507125402 57 162 4.0 9.0 0.00 0.00 0.00 60 1015.2
20260507125002 57 156 5.0 11.0 0.00 0.00 0.00 60 1015.0
20260507124802 56 184 2.0 11.0 0.00 0.00 0.00 61 1015.1
20260507124602 56 213 5.0 11.0 0.00 0.00 0.00 60 1015.1
20260507124404 56 166 4.0 10.0 0.00 0.00 0.00 61 1015.3
20260507124202 56 167 5.0 10.0 0.00 0.00 0.00 61 1015.3
20260507124003 56 176 3.0 8.0 0.00 0.00 0.00 62 1015.3
20260507123603 56 165 4.0 8.0 0.00 0.00 0.00 63 1015.2
20260507123402 56 161 3.0 8.0 0.00 0.00 0.00 63 1015.1
20260507123003 55 144 3.0 9.0 0.00 0.00 0.00 63 1015.3
20260507122805 55 150 2.0 9.0 0.00 0.00 0.00 65 1015.3
20260507122602 55 158 2.0 9.0 0.00 0.00 0.00 66 1015.2
20260507122404 55 129 2.0 9.0 0.00 0.00 0.00 66 1015.3
20260507122202 54 146 3.0 7.0 0.00 0.00 0.00 67 1015.3
20260507122005 54 133 2.0 7.0 0.00 0.00 0.00 68 1015.3
20260507121802 54 140 4.0 7.0 0.00 0.00 0.00 68 1015.3
20260507121402 54 216 4.0 9.0 0.00 0.00 0.00 68 1015.3
20260507121204 54 128 4.0 9.0 0.00 0.00 0.00 67 1015.3
20260507121007 54 148 4.0 9.0 0.00 0.00 0.00 68 1015.3
20260507120804 54 146 4.0 9.0 0.00 0.00 0.00 68 1015.4
20260507120602 53 184 3.0 8.0 0.00 0.00 0.00 69 1015.3
20260507120404 53 164 3.0 8.0 0.00 0.00 0.00 69 1015.3
20260507120202 53 127 2.0 8.0 0.00 0.00 0.00 69 1015.3
20260507120007 53 153 3.0 8.0 0.00 0.00 0.00 69 1015.3
20260507115803 53 208 1.0 8.0 0.00 0.00 0.00 70 1015.4
20260507115402 53 138 2.0 6.0 0.00 0.00 0.00 70 1015.3
20260507115003 52 150 2.0 6.0 0.00 0.00 0.00 70 1015.4
20260507114802 52 162 3.0 6.0 0.00 0.00 0.00 70 1015.4
20260507114604 52 146 4.0 6.0 0.00 0.00 0.00 71 1015.4
20260507114402 52 151 2.0 5.0 0.00 0.00 0.00 72 1015.4
20260507114204 52 158 2.0 5.0 0.00 0.00 0.00 72 1015.5
20260507114003 52 142 2.0 5.0 0.00 0.00 0.00 73 1015.5
20260507113803 52 115 1.0 5.0 0.00 0.00 0.00 73 1015.5
20260507113603 52 190 2.0 7.0 0.00 0.00 0.00 73 1015.5
20260507113404 51 124 1.0 7.0 0.00 0.00 0.00 74 1015.4
20260507113202 51 123 2.0 7.0 0.00 0.00 0.00 74 1015.5
20260507113006 51 153 3.0 7.0 0.00 0.00 0.00 74 1015.5
20260507112803 51 193 4.0 7.0 0.00 0.00 0.00 74 1015.5
20260507112402 51 197 2.0 6.0 0.00 0.00 0.00 74 1015.5
20260507112203 51 155 3.0 6.0 0.00 0.00 0.00 74 1015.5
20260507112003 51 165 3.0 7.0 0.00 0.00 0.00 74 1015.6
20260507111803 51 124 3.0 8.0 0.00 0.00 0.00 75 1015.6
20260507111602 51 156 2.0 8.0 0.00 0.00 0.00 76 1015.6
20260507111404 51 153 3.0 8.0 0.00 0.00 0.00 75 1015.6
20260507111202 50 190 4.0 8.0 0.00 0.00 0.00 76 1015.6
20260507111005 50 169 0.0 5.0 0.00 0.00 0.00 78 1015.6
20260507110603 50 139 2.0 6.0 0.00 0.00 0.00 77 1015.6
20260507110402 50 150 3.0 6.0 0.00 0.00 0.00 77 1015.6
20260507110202 50 138 3.0 6.0 0.00 0.00 0.00 77 1015.7
20260507105803 50 169 3.0 6.0 0.00 0.00 0.00 78 1015.7
20260507105202 49 122 1.0 8.0 0.00 0.00 0.00 79 1015.7
20260507105004 49 183 2.0 8.0 0.00 0.00 0.00 79 1015.8
20260507104802 49 155 2.0 8.0 0.00 0.00 0.00 79 1015.8
20260507104602 49 155 4.0 8.0 0.00 0.00 0.00 79 1015.8
20260507104402 49 165 2.0 6.0 0.00 0.00 0.00 79 1015.8
20260507104202 49 110 1.0 6.0 0.00 0.00 0.00 80 1015.8
20260507103802 49 101 3.0 8.0 0.00 0.00 0.00 80 1015.7
20260507103602 49 126 3.0 8.0 0.00 0.00 0.00 80 1015.8
20260507103403 49 155 4.0 8.0 0.00 0.00 0.00 80 1015.7
20260507103202 48 75 3.0 6.0 0.00 0.00 0.00 81 1015.8
20260507103003 48 86 3.0 6.0 0.00 0.00 0.00 81 1015.7
20260507102803 48 162 1.0 8.0 0.00 0.00 0.00 81 1015.8
20260507102603 48 163 2.0 8.0 0.00 0.00 0.00 81 1015.8
20260507102404 48 148 2.0 8.0 0.00 0.00 0.00 81 1015.8
20260507102203 48 150 3.0 8.0 0.00 0.00 0.00 81 1015.7
20260507102006 48 170 3.0 6.0 0.00 0.00 0.00 81 1015.8
20260507101802 48 133 1.0 6.0 0.00 0.00 0.00 82 1015.7
20260507101603 48 172 2.0 6.0 0.00 0.00 0.00 82 1015.6
20260507101004 48 205 1.0 4.0 0.00 0.00 0.00 82 1015.7
20260507100803 48 203 1.0 4.0 0.00 0.00 0.00 82 1015.7
20260507100602 48 133 2.0 4.0 0.00 0.00 0.00 82 1015.8
20260507100404 48 146 2.0 5.0 0.00 0.00 0.00 82 1015.8
20260507100202 48 136 1.0 5.0 0.00 0.00 0.00 83 1015.8
20260507100007 47 124 0.0 5.0 0.00 0.00 0.00 83 1015.8
20260507095803 47 169 2.0 5.0 0.00 0.00 0.00 83 1015.9
20260507095602 47 185 1.0 7.0 0.00 0.00 0.00 83 1015.9
20260507095402 47 172 1.0 7.0 0.00 0.00 0.00 83 1015.8
20260507095202 47 120 2.0 7.0 0.00 0.00 0.00 83 1015.8
20260507095003 47 139 2.0 7.0 0.00 0.00 0.00 83 1015.8
20260507094803 47 131 3.0 7.0 0.00 0.00 0.00 82 1015.8
20260507094603 47 123 3.0 6.0 0.00 0.00 0.00 82 1015.9
20260507094403 47 224 3.0 6.0 0.00 0.00 0.00 82 1015.9
20260507094203 47 57 2.0 5.0 0.00 0.00 0.00 82 1015.9
20260507094003 47 120 1.0 4.0 0.00 0.00 0.00 82 1015.9
20260507093603 47 158 2.0 4.0 0.00 0.00 0.00 82 1015.8
20260507093403 47 21 1.0 4.0 0.00 0.00 0.00 82 1015.9
20260507093202 47 133 2.0 6.0 0.00 0.00 0.00 82 1015.9
20260507093004 47 154 2.0 6.0 0.00 0.00 0.00 82 1015.9
20260507092802 47 169 2.0 6.0 0.00 0.00 0.00 82 1015.8
20260507092404 47 170 3.0 5.0 0.00 0.00 0.00 82 1015.8
20260507092204 47 167 2.0 5.0 0.00 0.00 0.00 82 1015.9
20260507092006 47 174 3.0 5.0 0.00 0.00 0.00 82 1015.9
20260507091803 47 133 2.0 5.0 0.00 0.00 0.00 83 1015.8
20260507091604 47 201 1.0 5.0 0.00 0.00 0.00 83 1015.9
20260507091403 47 122 1.0 5.0 0.00 0.00 0.00 83 1015.7
20260507091204 47 151 1.0 5.0 0.00 0.00 0.00 83 1015.8
20260507091004 47 111 3.0 5.0 0.00 0.00 0.00 83 1015.8
20260507090803 47 132 1.0 5.0 0.00 0.00 0.00 83 1015.8
20260507090404 47 158 2.0 6.0 0.00 0.00 0.00 83 1015.7
20260507090203 46 168 3.0 6.0 0.00 0.00 0.00 84 1015.7
20260507090006 46 150 2.0 6.0 0.00 0.00 0.00 84 1015.7
20260507085803 46 171 3.0 6.0 0.00 0.00 0.00 84 1015.7
20260507085203 46 167 2.0 7.0 0.00 0.00 0.00 84 1015.7
20260507085004 46 205 1.0 7.0 0.00 0.00 0.00 84 1015.7
20260507084802 46 116 3.0 7.0 0.00 0.00 0.00 84 1015.8
20260507084603 46 164 4.0 7.0 0.00 0.00 0.00 84 1015.7
20260507084402 46 90 3.0 7.0 0.00 0.00 0.00 84 1015.8
20260507083802 46 136 1.0 5.0 0.00 0.00 0.00 84 1015.8
20260507083602 46 119 2.0 5.0 0.00 0.00 0.00 85 1015.8
20260507083402 46 211 3.0 6.0 0.00 0.00 0.00 84 1015.8
20260507083202 46 88 1.0 6.0 0.00 0.00 0.00 84 1015.8
20260507083004 46 85 2.0 6.0 0.00 0.00 0.00 84 1015.8
20260507082803 46 147 4.0 6.0 0.00 0.00 0.00 84 1015.8
20260507082603 46 152 3.0 6.0 0.00 0.00 0.00 84 1015.8
20260507082403 46 123 3.0 6.0 0.00 0.00 0.00 84 1015.8
20260507082203 46 129 1.0 4.0 0.00 0.00 0.00 84 1015.8
20260507082004 46 132 0.0 4.0 0.00 0.00 0.00 84 1015.8
20260507081604 46 156 1.0 4.0 0.00 0.00 0.00 84 1015.8
20260507081403 46 120 1.0 5.0 0.00 0.00 0.00 85 1015.8
20260507081204 46 162 0.0 6.0 0.00 0.00 0.00 85 1015.7
20260507081004 46 68 2.0 6.0 0.00 0.00 0.00 85 1015.8
20260507080603 46 153 3.0 6.0 0.00 0.00 0.00 84 1015.8
20260507080202 45 161 2.0 9.0 0.00 0.00 0.00 84 1015.9
20260507075803 45 177 4.0 9.0 0.00 0.00 0.00 84 1015.8
20260507075603 45 210 3.0 9.0 0.00 0.00 0.00 84 1015.8
20260507075402 46 199 4.0 9.0 0.00 0.00 0.00 84 1015.8
20260507075203 46 173 3.0 9.0 0.00 0.00 0.00 84 1015.8
20260507075003 45 109 3.0 9.0 0.00 0.00 0.00 84 1015.8
20260507074802 45 146 3.0 9.0 0.00 0.00 0.00 84 1015.8
20260507074602 46 173 2.0 7.0 0.00 0.00 0.00 84 1015.8
20260507074403 45 129 3.0 7.0 0.00 0.00 0.00 84 1015.8
20260507074203 45 153 2.0 7.0 0.00 0.00 0.00 85 1015.8
20260507074003 45 148 4.0 7.0 0.00 0.00 0.00 84 1015.8
20260507073801 45 144 1.0 7.0 0.00 0.00 0.00 85 1015.7
20260507073603 45 149 2.0 8.0 0.00 0.00 0.00 85 1015.7
20260507073203 45 197 2.0 8.0 0.00 0.00 0.00 85 1015.6
20260507073004 45 111 3.0 8.0 0.00 0.00 0.00 85 1015.6
20260507072603 45 180 2.0 7.0 0.00 0.00 0.00 85 1015.6
20260507072403 45 123 3.0 7.0 0.00 0.00 0.00 85 1015.7
20260507072003 45 171 3.0 8.0 0.00 0.00 0.00 85 1015.6
20260507071803 45 143 2.0 8.0 0.00 0.00 0.00 85 1015.6
20260507071602 45 116 2.0 8.0 0.00 0.00 0.00 85 1015.6
20260507071405 45 172 5.0 8.0 0.00 0.00 0.00 85 1015.6
20260507071005 45 153 2.0 8.0 0.00 0.00 0.00 85 1015.6
20260507070802 45 180 3.0 6.0 0.00 0.00 0.00 85 1015.7
20260507070402 45 171 1.0 5.0 0.00 0.00 0.00 85 1015.6
20260507070204 45 165 1.0 5.0 0.00 0.00 0.00 85 1015.6
20260507070009 45 205 2.0 6.0 0.00 0.00 0.00 85 1015.6
20260507065801 45 170 3.0 8.0 0.00 0.00 0.00 85 1015.5
20260507065602 45 136 1.0 8.0 0.00 0.00 0.00 85 1015.5
20260507065401 44 161 2.0 8.0 0.00 0.00 0.00 85 1015.5
20260507065201 45 155 3.0 8.0 0.00 0.00 0.00 85 1015.5
20260507065003 44 120 3.0 8.0 0.00 0.00 0.00 85 1015.6
20260507064801 44 238 2.0 7.0 0.00 0.00 0.00 85 1015.6
20260507064602 44 149 2.0 5.0 0.00 0.00 0.00 85 1015.5
20260507064401 44 155 1.0 5.0 0.00 0.00 0.00 85 1015.5
20260507064201 44 150 1.0 5.0 0.00 0.00 0.00 85 1015.5
20260507064002 44 175 2.0 5.0 0.00 0.00 0.00 85 1015.5
20260507063601 44 168 1.0 5.0 0.00 0.00 0.00 85 1015.5
20260507063202 44 138 2.0 5.0 0.00 0.00 0.00 85 1015.6
20260507063003 44 138 1.0 6.0 0.00 0.00 0.00 85 1015.5
20260507062804 44 153 1.0 6.0 0.00 0.00 0.00 86 1015.6
20260507062601 44 122 1.0 6.0 0.00 0.00 0.00 86 1015.7
20260507062403 44 160 1.0 6.0 0.00 0.00 0.00 85 1015.6
20260507062201 44 97 2.0 6.0 0.00 0.00 0.00 86 1015.5
20260507061801 44 136 2.0 6.0 0.00 0.00 0.00 85 1015.6
20260507061603 44 158 2.0 5.0 0.00 0.00 0.00 86 1015.5
20260507061401 44 151 2.0 5.0 0.00 0.00 0.00 85 1015.5
20260507061203 44 169 2.0 5.0 0.00 0.00 0.00 85 1015.6
20260507060602 44 150 2.0 5.0 0.00 0.00 0.00 86 1015.6
20260507060403 44 115 1.0 5.0 0.00 0.00 0.00 86 1015.5
20260507060202 44 133 2.0 5.0 0.00 0.00 0.00 85 1015.5
20260507060007 44 147 3.0 5.0 0.00 0.00 0.00 85 1015.5
20260507055801 44 131 1.0 5.0 0.00 0.00 0.00 86 1015.6
20260507055401 44 120 2.0 5.0 0.00 0.00 0.00 85 1015.4
20260507055201 44 207 2.0 5.0 0.00 0.00 0.00 85 1015.4
20260507055002 44 181 2.0 5.0 0.00 0.00 0.00 85 1015.5
20260507054801 44 179 2.0 4.0 0.00 0.00 0.00 85 1015.4
20260507054601 44 134 1.0 3.0 0.00 0.00 0.00 86 1015.4
20260507054201 44 178 1.0 4.0 0.00 0.00 0.00 85 1015.4
20260507054002 44 114 2.0 4.0 0.00 0.00 0.00 85 1015.4
20260507053803 44 96 2.0 4.0 0.00 0.00 0.00 85 1015.3
20260507053601 44 134 0.0 3.0 0.00 0.00 0.00 85 1015.4
20260507053403 44 129 1.0 3.0 0.00 0.00 0.00 85 1015.4
20260507053201 44 41 0.0 3.0 0.00 0.00 0.00 85 1015.4
20260507053005 44 119 2.0 3.0 0.00 0.00 0.00 85 1015.4
20260507052801 44 167 0.0 4.0 0.00 0.00 0.00 85 1015.4
20260507052601 44 137 0.0 5.0 0.00 0.00 0.00 85 1015.3
20260507052403 43 134 0.0 5.0 0.00 0.00 0.00 85 1015.3
20260507052201 43 73 1.0 5.0 0.00 0.00 0.00 85 1015.3
20260507052003 43 154 1.0 5.0 0.00 0.00 0.00 85 1015.3
20260507051801 43 148 2.0 5.0 0.00 0.00 0.00 86 1015.3
20260507051603 43 145 1.0 4.0 0.00 0.00 0.00 86 1015.3
20260507051401 43 160 2.0 4.0 0.00 0.00 0.00 85 1015.3
20260507051203 43 131 1.0 3.0 0.00 0.00 0.00 86 1015.2
20260507051003 43 167 1.0 3.0 0.00 0.00 0.00 86 1015.3
20260507050803 43 154 1.0 4.0 0.00 0.00 0.00 86 1015.3
20260507050602 43 117 0.0 4.0 0.00 0.00 0.00 86 1015.2
20260507050403 43 155 1.0 4.0 0.00 0.00 0.00 86 1015.2
20260507050007 43 150 1.0 4.0 0.00 0.00 0.00 86 1015.2
20260507045801 43 177 0.0 3.0 0.00 0.00 0.00 86 1015.2
20260507045601 43 107 1.0 3.0 0.00 0.00 0.00 86 1015.2
20260507045402 43 72 0.0 3.0 0.00 0.00 0.00 86 1015.2
20260507045201 43 123 1.0 3.0 0.00 0.00 0.00 86 1015.1
20260507045002 43 160 1.0 3.0 0.00 0.00 0.00 86 1015.1
20260507044801 43 150 1.0 3.0 0.00 0.00 0.00 86 1015.1
20260507044601 43 156 0.0 3.0 0.00 0.00 0.00 86 1015.1
20260507044201 43 136 1.0 3.0 0.00 0.00 0.00 86 1015.2
20260507044004 43 134 1.0 3.0 0.00 0.00 0.00 86 1015.2
20260507043602 43 139 0.0 3.0 0.00 0.00 0.00 86 1015.2
20260507043401 43 129 1.0 3.0 0.00 0.00 0.00 86 1015.1
20260507043002 42 115 1.0 3.0 0.00 0.00 0.00 86 1015.1
20260507042803 42 173 1.0 3.0 0.00 0.00 0.00 86 1015.2
20260507042601 42 146 1.0 3.0 0.00 0.00 0.00 86 1015.2
20260507042402 42 182 1.0 3.0 0.00 0.00 0.00 86 1015.1
20260507042201 42 141 0.0 2.0 0.00 0.00 0.00 86 1015.2
20260507041801 42 131 1.0 2.0 0.00 0.00 0.00 86 1015.2
20260507041603 42 115 0.0 1.0 0.00 0.00 0.00 86 1015.2
20260507041401 42 109 0.0 0.0 0.00 0.00 0.00 86 1015.2
20260507041203 42 142 0.0 0.0 0.00 0.00 0.00 86 1015.2
20260507040803 42 61 0.0 0.0 0.00 0.00 0.00 86 1015.1
20260507040402 42 127 0.0 0.0 0.00 0.00 0.00 86 1015.2
20260507040201 42 126 0.0 1.0 0.00 0.00 0.00 86 1015.1
20260507040007 42 114 0.0 1.0 0.00 0.00 0.00 86 1015.1
20260507035601 42 172 0.0 1.0 0.00 0.00 0.00 86 1015.2
20260507035401 42 115 0.0 1.0 0.00 0.00 0.00 86 1015.1
20260507035201 42 117 0.0 1.0 0.00 0.00 0.00 86 1015.2
20260507035002 42 96 0.0 1.0 0.00 0.00 0.00 86 1015.2
20260507034801 42 101 0.0 1.0 0.00 0.00 0.00 86 1015.2
20260507034601 42 87 0.0 0.0 0.00 0.00 0.00 86 1015.3
20260507034401 42 113 0.0 1.0 0.00 0.00 0.00 85 1015.3
20260507034201 42 83 0.0 1.0 0.00 0.00 0.00 85 1015.3
20260507034002 42 83 0.0 1.0 0.00 0.00 0.00 85 1015.3
20260507033801 42 83 0.0 2.0 0.00 0.00 0.00 85 1015.3
20260507033603 42 126 0.0 3.0 0.00 0.00 0.00 85 1015.2
20260507033403 42 124 0.0 3.0 0.00 0.00 0.00 85 1015.2
20260507033203 42 146 0.0 3.0 0.00 0.00 0.00 85 1015.3
20260507033002 42 146 1.0 3.0 0.00 0.00 0.00 85 1015.3
20260507032803 42 115 0.0 3.0 0.00 0.00 0.00 85 1015.2
20260507032601 42 120 0.0 3.0 0.00 0.00 0.00 85 1015.3
20260507032402 42 117 0.0 3.0 0.00 0.00 0.00 85 1015.2
20260507032201 42 102 0.0 3.0 0.00 0.00 0.00 85 1015.1
20260507032003 42 58 0.0 3.0 0.00 0.00 0.00 85 1015.2
20260507031801 42 154 1.0 3.0 0.00 0.00 0.00 85 1015.2
20260507031602 42 115 0.0 2.0 0.00 0.00 0.00 85 1015.2
20260507031401 42 112 0.0 2.0 0.00 0.00 0.00 85 1015.2
20260507030803 42 127 0.0 0.0 0.00 0.00 0.00 85 1015.3
20260507030601 42 136 0.0 0.0 0.00 0.00 0.00 85 1015.4
20260507030402 42 147 0.0 0.0 0.00 0.00 0.00 85 1015.3
20260507030201 42 147 0.0 0.0 0.00 0.00 0.00 85 1015.4
20260507025801 42 127 0.0 1.0 0.00 0.00 0.00 85 1015.4
20260507025603 42 143 0.0 1.0 0.00 0.00 0.00 85 1015.4
20260507025203 43 136 0.0 1.0 0.00 0.00 0.00 84 1015.4
20260507025002 43 117 0.0 1.0 0.00 0.00 0.00 84 1015.3
20260507024802 43 122 0.0 1.0 0.00 0.00 0.00 84 1015.4
20260507024402 43 139 0.0 2.0 0.00 0.00 0.00 84 1015.4
20260507024201 43 140 0.0 2.0 0.00 0.00 0.00 84 1015.5
20260507024004 43 124 0.0 2.0 0.00 0.00 0.00 84 1015.3
20260507023801 43 103 0.0 2.0 0.00 0.00 0.00 85 1015.4
20260507023603 43 106 1.0 2.0 0.00 0.00 0.00 85 1015.4
20260507023401 43 136 0.0 2.0 0.00 0.00 0.00 85 1015.5
20260507023003 43 148 0.0 2.0 0.00 0.00 0.00 85 1015.4
20260507022803 43 128 0.0 0.0 0.00 0.00 0.00 85 1015.4
20260507022601 43 120 0.0 0.0 0.00 0.00 0.00 85 1015.4
20260507022403 43 120 0.0 0.0 0.00 0.00 0.00 85 1015.4
20260507022201 43 139 0.0 0.0 0.00 0.00 0.00 85 1015.4
20260507022003 43 139 0.0 0.0 0.00 0.00 0.00 85 1015.4
20260507021602 43 103 0.0 0.0 0.00 0.00 0.00 84 1015.4
20260507021401 43 124 0.0 0.0 0.00 0.00 0.00 84 1015.4
20260507020803 43 98 0.0 1.0 0.00 0.00 0.00 84 1015.3
20260507020601 43 98 0.0 4.0 0.00 0.00 0.00 84 1015.4
20260507020403 43 98 0.0 4.0 0.00 0.00 0.00 84 1015.3
20260507020201 43 138 0.0 4.0 0.00 0.00 0.00 84 1015.4
20260507020006 43 139 1.0 4.0 0.00 0.00 0.00 84 1015.4
20260507015801 43 130 0.0 1.0 0.00 0.00 0.00 84 1015.4
20260507015603 43 139 0.0 1.0 0.00 0.00 0.00 84 1015.4
20260507015401 43 139 0.0 2.0 0.00 0.00 0.00 84 1015.4
20260507015203 43 108 0.0 2.0 0.00 0.00 0.00 84 1015.4
20260507015002 43 113 0.0 2.0 0.00 0.00 0.00 84 1015.4
20260507014803 43 113 0.0 2.0 0.00 0.00 0.00 84 1015.5
20260507014601 43 74 0.0 2.0 0.00 0.00 0.00 84 1015.5
20260507014402 43 108 0.0 2.0 0.00 0.00 0.00 84 1015.4
20260507014201 43 136 0.0 3.0 0.00 0.00 0.00 83 1015.4
20260507014004 43 172 0.0 3.0 0.00 0.00 0.00 83 1015.4
20260507013801 43 117 0.0 3.0 0.00 0.00 0.00 83 1015.4
20260507013602 43 120 1.0 3.0 0.00 0.00 0.00 83 1015.4
20260507013401 43 152 0.0 3.0 0.00 0.00 0.00 83 1015.5
20260507013203 43 150 0.0 3.0 0.00 0.00 0.00 83 1015.5
20260507013002 43 138 1.0 3.0 0.00 0.00 0.00 83 1015.4
20260507012601 43 133 0.0 2.0 0.00 0.00 0.00 83 1015.4
20260507012403 43 146 0.0 3.0 0.00 0.00 0.00 83 1015.4
20260507012201 43 136 0.0 3.0 0.00 0.00 0.00 83 1015.4
20260507012003 43 126 0.0 3.0 0.00 0.00 0.00 83 1015.4
20260507011801 43 151 1.0 3.0 0.00 0.00 0.00 83 1015.4
20260507011602 43 124 1.0 3.0 0.00 0.00 0.00 83 1015.4
20260507011401 43 138 0.0 3.0 0.00 0.00 0.00 83 1015.5
20260507011203 43 169 1.0 3.0 0.00 0.00 0.00 82 1015.5
20260507010802 43 120 0.0 2.0 0.00 0.00 0.00 82 1015.5
20260507010601 44 141 1.0 2.0 0.00 0.00 0.00 82 1015.5
20260507010402 44 91 0.0 4.0 0.00 0.00 0.00 82 1015.6
20260507010200 44 145 0.0 4.0 0.00 0.00 0.00 82 1015.6
20260507005801 44 160 0.0 4.0 0.00 0.00 0.00 82 1015.5
20260507005603 44 118 1.0 4.0 0.00 0.00 0.00 82 1015.6
20260507005401 44 148 1.0 3.0 0.00 0.00 0.00 82 1015.5
20260507005203 44 135 0.0 3.0 0.00 0.00 0.00 81 1015.6
20260507005002 44 139 1.0 3.0 0.00 0.00 0.00 81 1015.5
20260507004802 44 131 1.0 4.0 0.00 0.00 0.00 81 1015.5
20260507004402 44 132 0.0 4.0 0.00 0.00 0.00 81 1015.5
20260507004003 44 162 1.0 4.0 0.00 0.00 0.00 81 1015.6
20260507003801 44 179 1.0 4.0 0.00 0.00 0.00 81 1015.6
20260507003604 44 86 1.0 4.0 0.00 0.00 0.00 81 1015.7
20260507003401 44 206 1.0 6.0 0.00 0.00 0.00 81 1015.6
20260507003201 44 122 0.0 6.0 0.00 0.00 0.00 80 1015.7
20260507002801 44 124 1.0 6.0 0.00 0.00 0.00 80 1015.7
20260507002601 44 94 2.0 6.0 0.00 0.00 0.00 80 1015.6
20260507002401 44 141 1.0 6.0 0.00 0.00 0.00 80 1015.6
20260507002204 45 63 2.0 6.0 0.00 0.00 0.00 80 1015.7
20260507002001 45 151 1.0 6.0 0.00 0.00 0.00 80 1015.7
20260507001801 45 124 1.0 6.0 0.00 0.00 0.00 80 1015.7
20260507001604 45 214 1.0 5.0 0.00 0.00 0.00 80 1015.7
20260507001401 45 68 2.0 6.0 0.00 0.00 0.00 80 1015.7
20260507001203 45 68 2.0 8.0 0.00 0.00 0.00 80 1015.7
20260507001002 45 125 2.0 8.0 0.00 0.00 0.00 80 1015.8
20260507000601 45 144 2.0 9.0 0.00 0.00 0.00 80 1015.8
20260507000405 45 102 2.0 9.0 0.00 0.00 0.00 80 1015.8
20260507000201 45 127 3.0 9.0 0.00 0.00 0.00 80 1015.8
20260507000006 45 113 1.0 7.0 0.00 0.00 0.00 80 1015.8
20260506235801 45 81 2.0 6.0 0.00 0.00 0.00 80 1015.7
20260506235601 44 124 2.0 6.0 0.00 0.00 0.00 80 1015.8
20260506235401 44 118 1.0 6.0 0.00 0.00 0.00 80 1015.9
20260506235001 44 225 3.0 6.0 0.00 0.00 0.00 81 1015.7
20260506234801 44 101 1.0 5.0 0.00 0.00 0.00 81 1015.8
20260506234601 44 108 1.0 5.0 0.00 0.00 0.00 81 1015.8
20260506234402 44 128 1.0 5.0 0.00 0.00 0.00 81 1015.8
20260506234201 44 133 1.0 5.0 0.00 0.00 0.00 81 1015.7
20260506234002 44 146 1.0 5.0 0.00 0.00 0.00 81 1015.7
20260506233601 44 96 1.0 5.0 0.00 0.00 0.00 81 1015.7
20260506233401 44 117 1.0 5.0 0.00 0.00 0.00 81 1015.7
20260506233002 44 118 1.0 5.0 0.00 0.00 0.00 81 1015.6
20260506232801 44 75 1.0 3.0 0.00 0.00 0.00 81 1015.7
20260506232601 44 141 1.0 3.0 0.00 0.00 0.00 81 1015.7
20260506232401 44 139 0.0 2.0 0.00 0.00 0.00 81 1015.7
20260506232004 44 86 1.0 3.0 0.00 0.00 0.00 81 1015.7
20260506231802 44 123 0.0 3.0 0.00 0.00 0.00 81 1015.6
20260506231401 44 127 1.0 3.0 0.00 0.00 0.00 81 1015.7
20260506231203 44 66 0.0 3.0 0.00 0.00 0.00 81 1015.7
20260506230802 44 131 1.0 4.0 0.00 0.00 0.00 81 1015.7
20260506230602 44 112 2.0 4.0 0.00 0.00 0.00 80 1015.7
20260506230204 44 81 1.0 4.0 0.00 0.00 0.00 80 1015.7
20260506225804 44 119 1.0 4.0 0.00 0.00 0.00 80 1015.6
20260506225404 44 124 1.0 3.0 0.00 0.00 0.00 80 1015.5
20260506225205 44 86 1.0 3.0 0.00 0.00 0.00 80 1015.6
20260506225005 44 108 0.0 2.0 0.00 0.00 0.00 79 1015.6
20260506224804 44 105 0.0 6.0 0.00 0.00 0.00 79 1015.5
20260506224204 45 131 1.0 6.0 0.00 0.00 0.00 79 1015.5
20260506223604 45 91 0.0 2.0 0.00 0.00 0.00 79 1015.5
20260506223404 45 91 0.0 3.0 0.00 0.00 0.00 79 1015.5
20260506223204 45 100 0.0 4.0 0.00 0.00 0.00 79 1015.5
20260506223005 45 100 0.0 4.0 0.00 0.00 0.00 78 1015.6
20260506222804 45 102 0.0 4.0 0.00 0.00 0.00 78 1015.5
20260506222606 45 82 1.0 5.0 0.00 0.00 0.00 78 1015.5
20260506222405 45 41 1.0 5.0 0.00 0.00 0.00 78 1015.5
20260506222204 45 197 1.0 5.0 0.00 0.00 0.00 78 1015.5
20260506222005 45 108 1.0 5.0 0.00 0.00 0.00 78 1015.5
20260506221804 45 79 1.0 6.0 0.00 0.00 0.00 78 1015.6
20260506221604 45 85 1.0 6.0 0.00 0.00 0.00 78 1015.4
20260506221404 45 70 1.0 6.0 0.00 0.00 0.00 78 1015.5
20260506221005 45 75 2.0 6.0 0.00 0.00 0.00 78 1015.4
20260506220804 45 78 2.0 6.0 0.00 0.00 0.00 78 1015.4
20260506220604 45 85 1.0 6.0 0.00 0.00 0.00 77 1015.3
20260506220405 45 125 1.0 6.0 0.00 0.00 0.00 77 1015.4
20260506220204 46 86 2.0 4.0 0.00 0.00 0.00 77 1015.5
20260506220007 46 102 1.0 5.0 0.00 0.00 0.00 77 1015.4
20260506215804 46 95 1.0 5.0 0.00 0.00 0.00 77 1015.5
20260506215603 46 120 1.0 5.0 0.00 0.00 0.00 77 1015.4
20260506215405 46 106 2.0 5.0 0.00 0.00 0.00 77 1015.5
20260506215205 46 63 2.0 4.0 0.00 0.00 0.00 76 1015.3
20260506215006 46 77 2.0 4.0 0.00 0.00 0.00 76 1015.4
20260506214803 46 68 1.0 4.0 0.00 0.00 0.00 76 1015.4
20260506214605 46 99 1.0 3.0 0.00 0.00 0.00 76 1015.4
20260506214403 47 60 1.0 3.0 0.00 0.00 0.00 75 1015.3
20260506214205 47 98 1.0 3.0 0.00 0.00 0.00 75 1015.4
20260506214004 47 103 1.0 3.0 0.00 0.00 0.00 75 1015.3
20260506213805 47 75 1.0 3.0 0.00 0.00 0.00 75 1015.3
20260506213603 47 87 1.0 3.0 0.00 0.00 0.00 75 1015.3
20260506213404 47 90 0.0 2.0 0.00 0.00 0.00 75 1015.3
20260506213203 47 86 0.0 2.0 0.00 0.00 0.00 75 1015.3
20260506213005 47 90 0.0 4.0 0.00 0.00 0.00 74 1015.3
20260506212803 47 86 0.0 4.0 0.00 0.00 0.00 74 1015.3
20260506212606 47 110 1.0 4.0 0.00 0.00 0.00 74 1015.3
20260506212403 47 287 0.0 4.0 0.00 0.00 0.00 74 1015.3
20260506212205 47 75 1.0 4.0 0.00 0.00 0.00 74 1015.3
20260506212004 47 39 1.0 3.0 0.00 0.00 0.00 74 1015.3
20260506211803 47 97 1.0 3.0 0.00 0.00 0.00 74 1015.2
20260506211605 47 71 1.0 3.0 0.00 0.00 0.00 74 1015.3
20260506211403 48 124 0.0 4.0 0.00 0.00 0.00 74 1015.3
20260506211205 48 129 0.0 4.0 0.00 0.00 0.00 74 1015.4
20260506211004 48 102 0.0 4.0 0.00 0.00 0.00 74 1015.4
20260506210805 48 103 2.0 4.0 0.00 0.00 0.00 74 1015.4
20260506210603 48 97 0.0 3.0 0.00 0.00 0.00 74 1015.3
20260506210203 48 137 0.0 2.0 0.00 0.00 0.00 73 1015.2
20260506210007 48 321 0.0 3.0 0.00 0.00 0.00 73 1015.3
20260506205803 48 114 1.0 5.0 0.00 0.00 0.00 73 1015.4
20260506205403 48 143 1.0 5.0 0.00 0.00 0.00 73 1015.3
20260506205203 48 71 2.0 5.0 0.00 0.00 0.00 73 1015.3
20260506205004 48 80 0.0 4.0 0.00 0.00 0.00 72 1015.3
20260506204803 48 41 1.0 4.0 0.00 0.00 0.00 72 1015.2
20260506204603 48 113 0.0 3.0 0.00 0.00 0.00 72 1015.3
20260506204403 48 160 1.0 3.0 0.00 0.00 0.00 72 1015.2
20260506204203 48 63 1.0 3.0 0.00 0.00 0.00 72 1015.2
20260506203803 48 79 0.0 6.0 0.00 0.00 0.00 71 1015.3
20260506203603 48 32 0.0 6.0 0.00 0.00 0.00 71 1015.2
20260506203403 48 90 1.0 6.0 0.00 0.00 0.00 71 1015.2
20260506203203 48 103 1.0 6.0 0.00 0.00 0.00 71 1015.1
20260506203004 48 51 1.0 5.0 0.00 0.00 0.00 71 1015.1
20260506202803 48 79 1.0 5.0 0.00 0.00 0.00 71 1015.0
20260506202603 48 77 1.0 5.0 0.00 0.00 0.00 70 1015.0
20260506202403 48 82 2.0 5.0 0.00 0.00 0.00 70 1015.0
20260506202203 48 143 1.0 5.0 0.00 0.00 0.00 70 1014.9
20260506201805 48 120 1.0 3.0 0.00 0.00 0.00 69 1015.0
20260506201604 48 84 1.0 3.0 0.00 0.00 0.00 69 1015.0
20260506201403 49 103 0.0 1.0 0.00 0.00 0.00 69 1015.0
20260506201204 49 288 0.0 1.0 0.00 0.00 0.00 68 1014.9
20260506201004 49 122 0.0 4.0 0.00 0.00 0.00 68 1014.9
20260506200804 49 123 0.0 4.0 0.00 0.00 0.00 67 1014.9
20260506200603 49 122 0.0 4.0 0.00 0.00 0.00 67 1014.9
20260506200203 49 113 0.0 2.0 0.00 0.00 0.00 67 1014.8
20260506200030 49 111 0.0 2.0 0.00 0.00 0.00 66 1014.8
20260506195803 49 75 0.0 2.0 0.00 0.00 0.00 66 1014.7
20260506195603 49 75 0.0 2.0 0.00 0.00 0.00 65 1014.8
20260506195403 49 70 0.0 2.0 0.00 0.00 0.00 65 1014.6
20260506195203 50 89 0.0 2.0 0.00 0.00 0.00 65 1014.6
20260506194803 50 358 0.0 2.0 0.00 0.00 0.00 64 1014.7
20260506194603 50 109 0.0 2.0 0.00 0.00 0.00 64 1014.6
20260506194403 50 109 0.0 3.0 0.00 0.00 0.00 64 1014.6
20260506194203 50 132 0.0 3.0 0.00 0.00 0.00 64 1014.6
20260506193803 50 96 0.0 3.0 0.00 0.00 0.00 63 1014.5
20260506193603 50 89 0.0 3.0 0.00 0.00 0.00 63 1014.5
20260506193403 51 109 0.0 3.0 0.00 0.00 0.00 62 1014.6
20260506193203 51 109 0.0 3.0 0.00 0.00 0.00 62 1014.5
20260506193004 51 109 1.0 3.0 0.00 0.00 0.00 62 1014.5
20260506192803 51 90 1.0 3.0 0.00 0.00 0.00 61 1014.5